#timestamp,LO_Frequency,Hit 
1500199215.6,286046886.0,N
1500199235.5,286046883.0,N
1500199255.3,286046883.5,N
1500199275.1,286046884.7,N
1500199295.9,286046889.5,N
1500199315.7,286046892.8,N
1500199335.5,286046898.4,N
1500199355.3,286046894.9,N
1500199375.2,286046891.9,N
1500199395.0,286046885.5,N
1500199395.9,286046885.5,N
1500199415.7,286046878.5,N
1500199435.6,286046875.0,N
1500199455.4,286046875.9,N
1500199475.2,286046879.2,N
1500199495.1,286046881.0,N
1500199496.0,286046881.0,N
1500199515.8,286046877.2,N
1500199535.6,286046871.7,N
1500199555.5,286046871.3,N
1500199575.3,286046867.0,N
1500199595.1,286046867.5,N
1500199615.9,286046868.2,N
1500199635.7,286046873.1,N
1500199655.5,286046876.3,N
1500199675.4,286046877.5,N
1500199695.2,286046873.7,N
1500199715.0,286046875.2,N
1500199715.9,286046875.2,N
1500199735.8,286046874.0,N
1500199755.6,286046873.0,N
1500199775.4,286046871.3,N
1500199795.2,286046869.7,N
1500199815.1,286046868.0,N
1500199816.0,286046868.0,N
1500199835.8,286046865.9,N
1500199855.6,286046869.3,N
1500199875.5,286046869.3,N
1500199895.3,286046867.1,N
1500199915.1,286046869.0,N
1500199935.9,286046870.9,N
1500199955.7,286046871.6,N
1500199975.5,286046871.6,N
1500199995.4,286046869.8,N
1500200015.2,286046868.4,N
1500200035.0,286046863.1,N
1500200035.9,286046863.1,N
1500200055.8,286046859.9,N
1500200075.6,286046854.6,N
1500200095.4,286046855.8,N
1500200115.3,286046858.2,N
1500200135.1,286046856.6,N
1500200136.0,286046856.6,N
1500200155.8,286046856.9,N
1500200175.7,286046855.0,N
1500200195.5,286046851.5,N
1500200215.3,286046849.7,N
1500200235.1,286046850.2,N
1500200255.9,286046851.6,N
1500200275.7,286046852.1,N
1500200295.5,286046847.8,N
1500200315.4,286046844.7,N
1500200335.2,286046849.5,N
1500200355.0,286046851.1,N
1500200355.9,286046851.1,N
1500200375.8,286046851.1,N
1500200395.6,286046850.6,N
1500200415.4,286046849.5,N
1500200435.3,286046851.2,N
1500200455.1,286046853.2,N
1500200475.8,286046855.6,N
1500200495.7,286046857.2,N
1500200515.5,286046856.0,N
1500200535.3,286046859.4,N
1500200555.2,286046863.1,N
1500200575.9,286046852.9,N
1500200595.7,286046849.8,N
1500200615.6,286046850.0,N
1500200635.4,286046855.4,N
1500200655.2,286046861.6,N
1500200675.0,286046862.6,N
1500200675.9,286046862.6,N
1500200695.8,286046864.6,N
1500200715.6,286046865.5,N
1500200735.4,286046863.0,N
1500200755.3,286046857.3,N
1500200775.1,286046852.5,N
1500200795.8,286046848.4,N
1500200815.7,286046841.7,N
1500200835.5,286046840.7,N
1500200855.3,286046841.9,N
1500200875.2,286046841.7,N
1500200895.9,286046840.0,N
1500200915.7,286046838.2,N
1500200935.6,286046841.0,N
1500200955.4,286046841.9,N
1500200975.2,286046839.7,N
1500200995.1,286046842.2,N
1500200996.0,286046842.2,N
1500201015.8,286046839.9,N
1500201035.6,286046840.8,N
1500201055.4,286046837.4,N
1500201075.3,286046837.5,N
1500201095.1,286046837.9,N
1500201115.8,286046836.5,N
1500201135.7,286046836.8,N
1500201155.5,286046835.1,N
1500201175.3,286046834.7,N
1500201195.2,286046834.4,N
1500201215.9,286046833.4,N
1500201235.7,286046843.1,N
1500201255.6,286046846.6,N
1500201275.4,286046856.6,N
1500201295.2,286046853.8,N
1500201315.1,286046847.5,N
1500201316.0,286046847.5,N
1500201335.8,286046845.0,N
1500201355.6,286046847.0,N
1500201375.5,286046849.6,N
1500201395.3,286046852.5,N
1500201415.1,286046855.7,N
1500201435.9,286046858.8,N
1500201455.7,286046855.2,N
1500201475.5,286046852.2,N
1500201495.3,286046848.5,N
1500201515.2,286046847.6,N
1500201535.0,286046840.7,N
1500201535.9,286046840.7,N
1500201555.7,286046844.2,N
1500201575.6,286046845.2,N
1500201595.4,286046842.9,N
1500201615.2,286046847.5,N
1500201635.1,286046847.3,N
1500201636.0,286046847.3,N
1500201655.8,286046844.2,N
1500201675.6,286046838.1,N
1500201695.5,286046842.1,N
1500201715.3,286046844.8,N
1500201735.1,286046849.1,N
1500201755.9,286046850.5,N
1500201775.7,286046849.8,N
1500201795.5,286046849.6,N
1500201815.4,286046845.5,N
1500201835.2,286046839.9,N
1500201855.0,286046841.1,N
1500201855.9,286046841.1,N
1500201875.8,286046837.7,N
1500201895.6,286046833.3,N
1500201915.4,286046831.8,N
1500201935.2,286046834.2,N
1500201955.1,286046835.6,N
1500201956.0,286046835.6,N
1500201975.8,286046838.5,N
1500201995.6,286046840.5,N
1500202015.5,286046840.5,N
1500202035.3,286046839.2,N
1500202055.1,286046836.5,N
1500202075.9,286046833.7,N
1500202095.7,286046830.1,N
1500202115.5,286046827.3,N
1500202135.4,286046826.3,N
1500202155.2,286046822.6,N
1500202175.0,286046820.6,N
1500202175.9,286046820.6,N
1500202195.8,286046820.9,N
1500202215.6,286046821.4,N
1500202235.4,286046825.7,N
1500202255.3,286046830.3,N
1500202275.1,286046831.5,N
1500202276.0,286046831.5,N
1500202295.8,286046836.2,N
1500202315.7,286046840.6,N
1500202335.5,286046837.4,N
1500202355.3,286046832.0,N
1500202375.2,286046827.4,N
1500202395.9,286046824.0,N
1500202415.7,286046823.6,N
1500202435.6,286046819.3,N
1500202455.4,286046817.8,N
1500202475.2,286046815.9,N
1500202495.1,286046817.0,N
1500202496.0,286046817.0,N
1500202515.8,286046814.1,N
1500202535.6,286046815.5,N
1500202555.5,286046811.5,Y
1500202575.3,286046869.9,N
1500202595.1,286046867.2,N
1500202615.9,286046867.9,N
1500202635.7,286046866.3,N
1500202655.5,286046863.7,N
1500202675.4,286046862.3,N
1500202695.2,286046861.4,N
1500202715.0,286046862.7,N
1500202715.9,286046862.7,N
1500202735.8,286046861.0,N
1500202755.6,286046864.2,N
1500202775.4,286046865.0,N
1500202795.2,286046861.2,N
